<?xml version="1.0" encoding="UTF-8" standalone="no" ?>
<gpx xmlns="http://www.topografix.com/GPX/1/1" xmlns:xsi="http://www.w3.org/2001/XMLSchema-instance" xsi:schemaLocation="http://www.topografix.com/GPX/1/1 http://www.topografix.com/GPX/1/1/gpx.xsd" version="1.1" creator="VisuGPX - https://www.visugpx.com">
  <metadata>
    <name>Randonnée du 07/10/2021 à 13:49</name>
    <desc><![CDATA[Balade à pied sur les hauteurs de CAJARC]]></desc>
  </metadata>
  <trk>
    <name><![CDATA[Randonnée du 07/10/2021 à 13:49]]></name>
    <trkseg>
      <trkpt lat="44.49134" lon="1.85191">
        <ele>203</ele>
        <time>2021-10-07T17:10:25+02:00</time>
      </trkpt>
      <trkpt lat="44.49155" lon="1.85201">
        <ele>208</ele>
        <time>2021-10-07T17:10:25+02:00</time>
      </trkpt>
      <trkpt lat="44.49177" lon="1.85206">
        <ele>212</ele>
        <time>2021-10-07T17:10:25+02:00</time>
      </trkpt>
      <trkpt lat="44.492" lon="1.85208">
        <ele>217</ele>
        <time>2021-10-07T17:10:25+02:00</time>
      </trkpt>
      <trkpt lat="44.49223" lon="1.85214">
        <ele>222</ele>
        <time>2021-10-07T17:10:25+02:00</time>
      </trkpt>
      <trkpt lat="44.49245" lon="1.85218">
        <ele>227</ele>
        <time>2021-10-07T17:10:25+02:00</time>
      </trkpt>
      <trkpt lat="44.49268" lon="1.85221">
        <ele>231</ele>
        <time>2021-10-07T17:10:25+02:00</time>
      </trkpt>
      <trkpt lat="44.4929" lon="1.85224">
        <ele>236</ele>
        <time>2021-10-07T17:10:25+02:00</time>
      </trkpt>
      <trkpt lat="44.49313" lon="1.8523">
        <ele>240</ele>
        <time>2021-10-07T17:10:25+02:00</time>
      </trkpt>
      <trkpt lat="44.49335" lon="1.85238">
        <ele>244</ele>
        <time>2021-10-07T17:10:25+02:00</time>
      </trkpt>
      <trkpt lat="44.49358" lon="1.85243">
        <ele>247</ele>
        <time>2021-10-07T17:10:25+02:00</time>
      </trkpt>
      <trkpt lat="44.49381" lon="1.85247">
        <ele>250</ele>
        <time>2021-10-07T17:10:25+02:00</time>
      </trkpt>
      <trkpt lat="44.49402" lon="1.85256">
        <ele>254</ele>
        <time>2021-10-07T17:10:25+02:00</time>
      </trkpt>
      <trkpt lat="44.49425" lon="1.85265">
        <ele>257</ele>
        <time>2021-10-07T17:10:25+02:00</time>
      </trkpt>
      <trkpt lat="44.49447" lon="1.85271">
        <ele>259</ele>
        <time>2021-10-07T17:10:25+02:00</time>
      </trkpt>
      <trkpt lat="44.49469" lon="1.85279">
        <ele>262</ele>
        <time>2021-10-07T17:10:25+02:00</time>
      </trkpt>
      <trkpt lat="44.49489" lon="1.85294">
        <ele>268</ele>
        <time>2021-10-07T17:10:25+02:00</time>
      </trkpt>
      <trkpt lat="44.49511" lon="1.85304">
        <ele>271</ele>
        <time>2021-10-07T17:10:25+02:00</time>
      </trkpt>
      <trkpt lat="44.49532" lon="1.85316">
        <ele>275</ele>
        <time>2021-10-07T17:10:25+02:00</time>
      </trkpt>
      <trkpt lat="44.49553" lon="1.85327">
        <ele>277</ele>
        <time>2021-10-07T17:10:25+02:00</time>
      </trkpt>
      <trkpt lat="44.49574" lon="1.8534">
        <ele>279</ele>
        <time>2021-10-07T17:10:25+02:00</time>
      </trkpt>
      <trkpt lat="44.49593" lon="1.8536">
        <ele>283</ele>
        <time>2021-10-07T17:10:25+02:00</time>
      </trkpt>
      <trkpt lat="44.49613" lon="1.85376">
        <ele>283</ele>
        <time>2021-10-07T17:10:25+02:00</time>
      </trkpt>
      <trkpt lat="44.49631" lon="1.85396">
        <ele>283</ele>
        <time>2021-10-07T17:10:25+02:00</time>
      </trkpt>
      <trkpt lat="44.4965" lon="1.85417">
        <ele>282</ele>
        <time>2021-10-07T17:10:25+02:00</time>
      </trkpt>
      <trkpt lat="44.49665" lon="1.85443">
        <ele>282</ele>
        <time>2021-10-07T17:10:25+02:00</time>
      </trkpt>
      <trkpt lat="44.49681" lon="1.85465">
        <ele>285</ele>
        <time>2021-10-07T17:10:25+02:00</time>
      </trkpt>
      <trkpt lat="44.49697" lon="1.85489">
        <ele>289</ele>
        <time>2021-10-07T17:10:25+02:00</time>
      </trkpt>
      <trkpt lat="44.49717" lon="1.85503">
        <ele>293</ele>
        <time>2021-10-07T17:10:25+02:00</time>
      </trkpt>
      <trkpt lat="44.4974" lon="1.85504">
        <ele>294</ele>
        <time>2021-10-07T17:10:25+02:00</time>
      </trkpt>
      <trkpt lat="44.49764" lon="1.85506">
        <ele>296</ele>
        <time>2021-10-07T17:10:25+02:00</time>
      </trkpt>
      <trkpt lat="44.49787" lon="1.85507">
        <ele>299</ele>
        <time>2021-10-07T17:10:25+02:00</time>
      </trkpt>
      <trkpt lat="44.49809" lon="1.85516">
        <ele>302</ele>
        <time>2021-10-07T17:10:25+02:00</time>
      </trkpt>
      <trkpt lat="44.49817" lon="1.85547">
        <ele>303</ele>
        <time>2021-10-07T17:10:25+02:00</time>
      </trkpt>
      <trkpt lat="44.49823" lon="1.85577">
        <ele>305</ele>
        <time>2021-10-07T17:10:25+02:00</time>
      </trkpt>
      <trkpt lat="44.4983" lon="1.85608">
        <ele>306</ele>
        <time>2021-10-07T17:10:25+02:00</time>
      </trkpt>
      <trkpt lat="44.49837" lon="1.85639">
        <ele>308</ele>
        <time>2021-10-07T17:10:25+02:00</time>
      </trkpt>
      <trkpt lat="44.49845" lon="1.85669">
        <ele>308</ele>
        <time>2021-10-07T17:10:25+02:00</time>
      </trkpt>
      <trkpt lat="44.49853" lon="1.85698">
        <ele>309</ele>
        <time>2021-10-07T17:10:25+02:00</time>
      </trkpt>
      <trkpt lat="44.4986" lon="1.85729">
        <ele>309</ele>
        <time>2021-10-07T17:10:25+02:00</time>
      </trkpt>
      <trkpt lat="44.49867" lon="1.85759">
        <ele>310</ele>
        <time>2021-10-07T17:10:25+02:00</time>
      </trkpt>
      <trkpt lat="44.49874" lon="1.8579">
        <ele>310</ele>
        <time>2021-10-07T17:10:25+02:00</time>
      </trkpt>
      <trkpt lat="44.49882" lon="1.85819">
        <ele>310</ele>
        <time>2021-10-07T17:10:25+02:00</time>
      </trkpt>
      <trkpt lat="44.49889" lon="1.85851">
        <ele>311</ele>
        <time>2021-10-07T17:10:25+02:00</time>
      </trkpt>
      <trkpt lat="44.49897" lon="1.85881">
        <ele>311</ele>
        <time>2021-10-07T17:10:25+02:00</time>
      </trkpt>
      <trkpt lat="44.49901" lon="1.85912">
        <ele>313</ele>
        <time>2021-10-07T17:10:25+02:00</time>
      </trkpt>
      <trkpt lat="44.49906" lon="1.85944">
        <ele>313</ele>
        <time>2021-10-07T17:10:25+02:00</time>
      </trkpt>
      <trkpt lat="44.49908" lon="1.85975">
        <ele>313</ele>
        <time>2021-10-07T17:10:25+02:00</time>
      </trkpt>
      <trkpt lat="44.49912" lon="1.86007">
        <ele>313</ele>
        <time>2021-10-07T17:10:25+02:00</time>
      </trkpt>
      <trkpt lat="44.49916" lon="1.86039">
        <ele>313</ele>
        <time>2021-10-07T17:10:25+02:00</time>
      </trkpt>
      <trkpt lat="44.49917" lon="1.86071">
        <ele>314</ele>
        <time>2021-10-07T17:10:25+02:00</time>
      </trkpt>
      <trkpt lat="44.49918" lon="1.86102">
        <ele>313</ele>
        <time>2021-10-07T17:10:25+02:00</time>
      </trkpt>
      <trkpt lat="44.49919" lon="1.86135">
        <ele>313</ele>
        <time>2021-10-07T17:10:25+02:00</time>
      </trkpt>
      <trkpt lat="44.49922" lon="1.86166">
        <ele>312</ele>
        <time>2021-10-07T17:10:25+02:00</time>
      </trkpt>
      <trkpt lat="44.49923" lon="1.86199">
        <ele>311</ele>
        <time>2021-10-07T17:10:25+02:00</time>
      </trkpt>
      <trkpt lat="44.49926" lon="1.86231">
        <ele>310</ele>
        <time>2021-10-07T17:10:25+02:00</time>
      </trkpt>
      <trkpt lat="44.49927" lon="1.86263">
        <ele>311</ele>
        <time>2021-10-07T17:10:25+02:00</time>
      </trkpt>
      <trkpt lat="44.4993" lon="1.86295">
        <ele>311</ele>
        <time>2021-10-07T17:10:25+02:00</time>
      </trkpt>
      <trkpt lat="44.49938" lon="1.86325">
        <ele>313</ele>
        <time>2021-10-07T17:10:25+02:00</time>
      </trkpt>
      <trkpt lat="44.49947" lon="1.86355">
        <ele>315</ele>
        <time>2021-10-07T17:10:25+02:00</time>
      </trkpt>
      <trkpt lat="44.49956" lon="1.86385">
        <ele>316</ele>
        <time>2021-10-07T17:10:25+02:00</time>
      </trkpt>
      <trkpt lat="44.49971" lon="1.8641">
        <ele>317</ele>
        <time>2021-10-07T17:10:25+02:00</time>
      </trkpt>
      <trkpt lat="44.49981" lon="1.86439">
        <ele>318</ele>
        <time>2021-10-07T17:10:25+02:00</time>
      </trkpt>
      <trkpt lat="44.49994" lon="1.86465">
        <ele>319</ele>
        <time>2021-10-07T17:10:25+02:00</time>
      </trkpt>
      <trkpt lat="44.50011" lon="1.86487">
        <ele>319</ele>
        <time>2021-10-07T17:10:25+02:00</time>
      </trkpt>
      <trkpt lat="44.50021" lon="1.86516">
        <ele>320</ele>
        <time>2021-10-07T17:10:25+02:00</time>
      </trkpt>
      <trkpt lat="44.50029" lon="1.86547">
        <ele>321</ele>
        <time>2021-10-07T17:10:25+02:00</time>
      </trkpt>
      <trkpt lat="44.50044" lon="1.86571">
        <ele>321</ele>
        <time>2021-10-07T17:10:25+02:00</time>
      </trkpt>
      <trkpt lat="44.50065" lon="1.86586">
        <ele>322</ele>
        <time>2021-10-07T17:10:25+02:00</time>
      </trkpt>
      <trkpt lat="44.50086" lon="1.86597">
        <ele>325</ele>
        <time>2021-10-07T17:10:25+02:00</time>
      </trkpt>
      <trkpt lat="44.50108" lon="1.86586">
        <ele>326</ele>
        <time>2021-10-07T17:10:25+02:00</time>
      </trkpt>
      <trkpt lat="44.50115" lon="1.86556">
        <ele>327</ele>
        <time>2021-10-07T17:10:25+02:00</time>
      </trkpt>
      <trkpt lat="44.50127" lon="1.86529">
        <ele>328</ele>
        <time>2021-10-07T17:10:25+02:00</time>
      </trkpt>
      <trkpt lat="44.50137" lon="1.865">
        <ele>328</ele>
        <time>2021-10-07T17:10:25+02:00</time>
      </trkpt>
      <trkpt lat="44.50144" lon="1.86469">
        <ele>328</ele>
        <time>2021-10-07T17:10:25+02:00</time>
      </trkpt>
      <trkpt lat="44.50149" lon="1.86437">
        <ele>328</ele>
        <time>2021-10-07T17:10:25+02:00</time>
      </trkpt>
      <trkpt lat="44.50154" lon="1.86405">
        <ele>329</ele>
        <time>2021-10-07T17:10:25+02:00</time>
      </trkpt>
      <trkpt lat="44.5016" lon="1.86374">
        <ele>328</ele>
        <time>2021-10-07T17:10:25+02:00</time>
      </trkpt>
      <trkpt lat="44.50165" lon="1.86343">
        <ele>330</ele>
        <time>2021-10-07T17:10:25+02:00</time>
      </trkpt>
      <trkpt lat="44.50184" lon="1.86322">
        <ele>331</ele>
        <time>2021-10-07T17:10:25+02:00</time>
      </trkpt>
      <trkpt lat="44.50207" lon="1.86317">
        <ele>332</ele>
        <time>2021-10-07T17:10:25+02:00</time>
      </trkpt>
      <trkpt lat="44.5023" lon="1.86319">
        <ele>331</ele>
        <time>2021-10-07T17:10:25+02:00</time>
      </trkpt>
      <trkpt lat="44.50253" lon="1.86322">
        <ele>331</ele>
        <time>2021-10-07T17:10:25+02:00</time>
      </trkpt>
      <trkpt lat="44.50276" lon="1.86324">
        <ele>331</ele>
        <time>2021-10-07T17:10:25+02:00</time>
      </trkpt>
      <trkpt lat="44.50298" lon="1.86323">
        <ele>330</ele>
        <time>2021-10-07T17:10:25+02:00</time>
      </trkpt>
      <trkpt lat="44.50321" lon="1.86323">
        <ele>330</ele>
        <time>2021-10-07T17:10:25+02:00</time>
      </trkpt>
      <trkpt lat="44.50345" lon="1.86323">
        <ele>330</ele>
        <time>2021-10-07T17:10:25+02:00</time>
      </trkpt>
      <trkpt lat="44.50368" lon="1.86323">
        <ele>330</ele>
        <time>2021-10-07T17:10:25+02:00</time>
      </trkpt>
      <trkpt lat="44.5039" lon="1.86325">
        <ele>331</ele>
        <time>2021-10-07T17:10:25+02:00</time>
      </trkpt>
      <trkpt lat="44.50413" lon="1.86324">
        <ele>331</ele>
        <time>2021-10-07T17:10:25+02:00</time>
      </trkpt>
      <trkpt lat="44.50436" lon="1.86326">
        <ele>330</ele>
        <time>2021-10-07T17:10:25+02:00</time>
      </trkpt>
      <trkpt lat="44.50459" lon="1.86323">
        <ele>330</ele>
        <time>2021-10-07T17:10:25+02:00</time>
      </trkpt>
      <trkpt lat="44.50482" lon="1.86323">
        <ele>329</ele>
        <time>2021-10-07T17:10:25+02:00</time>
      </trkpt>
      <trkpt lat="44.50505" lon="1.86325">
        <ele>328</ele>
        <time>2021-10-07T17:10:25+02:00</time>
      </trkpt>
      <trkpt lat="44.50527" lon="1.86333">
        <ele>329</ele>
        <time>2021-10-07T17:10:25+02:00</time>
      </trkpt>
      <trkpt lat="44.5055" lon="1.86338">
        <ele>327</ele>
        <time>2021-10-07T17:10:25+02:00</time>
      </trkpt>
      <trkpt lat="44.50572" lon="1.8635">
        <ele>327</ele>
        <time>2021-10-07T17:10:25+02:00</time>
      </trkpt>
      <trkpt lat="44.50595" lon="1.86359">
        <ele>326</ele>
        <time>2021-10-07T17:10:25+02:00</time>
      </trkpt>
      <trkpt lat="44.50614" lon="1.86378">
        <ele>325</ele>
        <time>2021-10-07T17:10:25+02:00</time>
      </trkpt>
      <trkpt lat="44.50632" lon="1.86396">
        <ele>324</ele>
        <time>2021-10-07T17:10:25+02:00</time>
      </trkpt>
      <trkpt lat="44.50652" lon="1.86416">
        <ele>323</ele>
        <time>2021-10-07T17:10:25+02:00</time>
      </trkpt>
      <trkpt lat="44.50669" lon="1.86437">
        <ele>322</ele>
        <time>2021-10-07T17:10:25+02:00</time>
      </trkpt>
      <trkpt lat="44.50692" lon="1.86438">
        <ele>319</ele>
        <time>2021-10-07T17:10:25+02:00</time>
      </trkpt>
      <trkpt lat="44.50709" lon="1.86414">
        <ele>315</ele>
        <time>2021-10-07T17:10:25+02:00</time>
      </trkpt>
      <trkpt lat="44.50726" lon="1.86437">
        <ele>314</ele>
        <time>2021-10-07T17:10:25+02:00</time>
      </trkpt>
      <trkpt lat="44.50746" lon="1.86454">
        <ele>315</ele>
        <time>2021-10-07T17:10:25+02:00</time>
      </trkpt>
      <trkpt lat="44.50767" lon="1.86465">
        <ele>315</ele>
        <time>2021-10-07T17:10:25+02:00</time>
      </trkpt>
      <trkpt lat="44.50787" lon="1.8645">
        <ele>316</ele>
        <time>2021-10-07T17:10:25+02:00</time>
      </trkpt>
      <trkpt lat="44.50805" lon="1.8643">
        <ele>317</ele>
        <time>2021-10-07T17:10:25+02:00</time>
      </trkpt>
      <trkpt lat="44.50823" lon="1.86411">
        <ele>319</ele>
        <time>2021-10-07T17:10:25+02:00</time>
      </trkpt>
      <trkpt lat="44.50834" lon="1.86384">
        <ele>319</ele>
        <time>2021-10-07T17:10:25+02:00</time>
      </trkpt>
      <trkpt lat="44.50845" lon="1.86356">
        <ele>319</ele>
        <time>2021-10-07T17:10:25+02:00</time>
      </trkpt>
      <trkpt lat="44.50855" lon="1.86328">
        <ele>319</ele>
        <time>2021-10-07T17:10:25+02:00</time>
      </trkpt>
      <trkpt lat="44.50865" lon="1.86298">
        <ele>317</ele>
        <time>2021-10-07T17:10:25+02:00</time>
      </trkpt>
      <trkpt lat="44.50873" lon="1.86268">
        <ele>316</ele>
        <time>2021-10-07T17:10:25+02:00</time>
      </trkpt>
      <trkpt lat="44.50882" lon="1.86239">
        <ele>314</ele>
        <time>2021-10-07T17:10:25+02:00</time>
      </trkpt>
      <trkpt lat="44.50889" lon="1.86208">
        <ele>313</ele>
        <time>2021-10-07T17:10:25+02:00</time>
      </trkpt>
      <trkpt lat="44.50897" lon="1.86178">
        <ele>310</ele>
        <time>2021-10-07T17:10:25+02:00</time>
      </trkpt>
      <trkpt lat="44.50906" lon="1.86149">
        <ele>309</ele>
        <time>2021-10-07T17:10:25+02:00</time>
      </trkpt>
      <trkpt lat="44.50911" lon="1.86119">
        <ele>309</ele>
        <time>2021-10-07T17:10:25+02:00</time>
      </trkpt>
      <trkpt lat="44.5092" lon="1.86088">
        <ele>309</ele>
        <time>2021-10-07T17:10:25+02:00</time>
      </trkpt>
      <trkpt lat="44.50927" lon="1.86058">
        <ele>309</ele>
        <time>2021-10-07T17:10:25+02:00</time>
      </trkpt>
      <trkpt lat="44.50938" lon="1.86028">
        <ele>311</ele>
        <time>2021-10-07T17:10:25+02:00</time>
      </trkpt>
      <trkpt lat="44.50947" lon="1.85998">
        <ele>312</ele>
        <time>2021-10-07T17:10:25+02:00</time>
      </trkpt>
      <trkpt lat="44.50957" lon="1.85968">
        <ele>312</ele>
        <time>2021-10-07T17:10:25+02:00</time>
      </trkpt>
      <trkpt lat="44.50968" lon="1.85939">
        <ele>312</ele>
        <time>2021-10-07T17:10:25+02:00</time>
      </trkpt>
      <trkpt lat="44.5098" lon="1.85913">
        <ele>312</ele>
        <time>2021-10-07T17:10:25+02:00</time>
      </trkpt>
      <trkpt lat="44.5099" lon="1.85883">
        <ele>311</ele>
        <time>2021-10-07T17:10:25+02:00</time>
      </trkpt>
      <trkpt lat="44.51001" lon="1.85856">
        <ele>310</ele>
        <time>2021-10-07T17:10:25+02:00</time>
      </trkpt>
      <trkpt lat="44.51014" lon="1.85829">
        <ele>309</ele>
        <time>2021-10-07T17:10:25+02:00</time>
      </trkpt>
      <trkpt lat="44.51026" lon="1.858">
        <ele>307</ele>
        <time>2021-10-07T17:10:25+02:00</time>
      </trkpt>
      <trkpt lat="44.51036" lon="1.85772">
        <ele>304</ele>
        <time>2021-10-07T17:10:25+02:00</time>
      </trkpt>
      <trkpt lat="44.51048" lon="1.85746">
        <ele>304</ele>
        <time>2021-10-07T17:10:25+02:00</time>
      </trkpt>
      <trkpt lat="44.51062" lon="1.8572">
        <ele>305</ele>
        <time>2021-10-07T17:10:25+02:00</time>
      </trkpt>
      <trkpt lat="44.51077" lon="1.85695">
        <ele>308</ele>
        <time>2021-10-07T17:10:25+02:00</time>
      </trkpt>
      <trkpt lat="44.51097" lon="1.85678">
        <ele>310</ele>
        <time>2021-10-07T17:10:25+02:00</time>
      </trkpt>
      <trkpt lat="44.51118" lon="1.85662">
        <ele>312</ele>
        <time>2021-10-07T17:10:25+02:00</time>
      </trkpt>
      <trkpt lat="44.5114" lon="1.85652">
        <ele>312</ele>
        <time>2021-10-07T17:10:25+02:00</time>
      </trkpt>
      <trkpt lat="44.51163" lon="1.85648">
        <ele>312</ele>
        <time>2021-10-07T17:10:25+02:00</time>
      </trkpt>
      <trkpt lat="44.51186" lon="1.85649">
        <ele>312</ele>
        <time>2021-10-07T17:10:25+02:00</time>
      </trkpt>
      <trkpt lat="44.51207" lon="1.85638">
        <ele>311</ele>
        <time>2021-10-07T17:10:25+02:00</time>
      </trkpt>
      <trkpt lat="44.5123" lon="1.8563">
        <ele>311</ele>
        <time>2021-10-07T17:10:25+02:00</time>
      </trkpt>
      <trkpt lat="44.51246" lon="1.85608">
        <ele>312</ele>
        <time>2021-10-07T17:10:25+02:00</time>
      </trkpt>
      <trkpt lat="44.51262" lon="1.85585">
        <ele>314</ele>
        <time>2021-10-07T17:10:25+02:00</time>
      </trkpt>
      <trkpt lat="44.51279" lon="1.85564">
        <ele>317</ele>
        <time>2021-10-07T17:10:25+02:00</time>
      </trkpt>
      <trkpt lat="44.51299" lon="1.8555">
        <ele>319</ele>
        <time>2021-10-07T17:10:25+02:00</time>
      </trkpt>
      <trkpt lat="44.51319" lon="1.85532">
        <ele>320</ele>
        <time>2021-10-07T17:10:25+02:00</time>
      </trkpt>
      <trkpt lat="44.51337" lon="1.85511">
        <ele>321</ele>
        <time>2021-10-07T17:10:25+02:00</time>
      </trkpt>
      <trkpt lat="44.51357" lon="1.85496">
        <ele>321</ele>
        <time>2021-10-07T17:10:25+02:00</time>
      </trkpt>
      <trkpt lat="44.51375" lon="1.85475">
        <ele>320</ele>
        <time>2021-10-07T17:10:25+02:00</time>
      </trkpt>
      <trkpt lat="44.5139" lon="1.85449">
        <ele>321</ele>
        <time>2021-10-07T17:10:25+02:00</time>
      </trkpt>
      <trkpt lat="44.51405" lon="1.85423">
        <ele>321</ele>
        <time>2021-10-07T17:10:25+02:00</time>
      </trkpt>
      <trkpt lat="44.51421" lon="1.85401">
        <ele>320</ele>
        <time>2021-10-07T17:10:25+02:00</time>
      </trkpt>
      <trkpt lat="44.51434" lon="1.85374">
        <ele>320</ele>
        <time>2021-10-07T17:10:25+02:00</time>
      </trkpt>
      <trkpt lat="44.51445" lon="1.85345">
        <ele>320</ele>
        <time>2021-10-07T17:10:25+02:00</time>
      </trkpt>
      <trkpt lat="44.51454" lon="1.85316">
        <ele>321</ele>
        <time>2021-10-07T17:10:25+02:00</time>
      </trkpt>
      <trkpt lat="44.51464" lon="1.85287">
        <ele>322</ele>
        <time>2021-10-07T17:10:25+02:00</time>
      </trkpt>
      <trkpt lat="44.5148" lon="1.85263">
        <ele>322</ele>
        <time>2021-10-07T17:10:25+02:00</time>
      </trkpt>
      <trkpt lat="44.51491" lon="1.85234">
        <ele>324</ele>
        <time>2021-10-07T17:10:25+02:00</time>
      </trkpt>
      <trkpt lat="44.51495" lon="1.85202">
        <ele>324</ele>
        <time>2021-10-07T17:10:25+02:00</time>
      </trkpt>
      <trkpt lat="44.51506" lon="1.85174">
        <ele>324</ele>
        <time>2021-10-07T17:10:25+02:00</time>
      </trkpt>
      <trkpt lat="44.51522" lon="1.8515">
        <ele>325</ele>
        <time>2021-10-07T17:10:25+02:00</time>
      </trkpt>
      <trkpt lat="44.51543" lon="1.85136">
        <ele>326</ele>
        <time>2021-10-07T17:10:25+02:00</time>
      </trkpt>
      <trkpt lat="44.51566" lon="1.85136">
        <ele>326</ele>
        <time>2021-10-07T17:10:25+02:00</time>
      </trkpt>
      <trkpt lat="44.51588" lon="1.8513">
        <ele>325</ele>
        <time>2021-10-07T17:10:25+02:00</time>
      </trkpt>
      <trkpt lat="44.51611" lon="1.85128">
        <ele>325</ele>
        <time>2021-10-07T17:10:25+02:00</time>
      </trkpt>
      <trkpt lat="44.51634" lon="1.85133">
        <ele>325</ele>
        <time>2021-10-07T17:10:25+02:00</time>
      </trkpt>
      <trkpt lat="44.51655" lon="1.85143">
        <ele>325</ele>
        <time>2021-10-07T17:10:25+02:00</time>
      </trkpt>
      <trkpt lat="44.51676" lon="1.85157">
        <ele>327</ele>
        <time>2021-10-07T17:10:25+02:00</time>
      </trkpt>
      <trkpt lat="44.51696" lon="1.85174">
        <ele>329</ele>
        <time>2021-10-07T17:10:25+02:00</time>
      </trkpt>
      <trkpt lat="44.51716" lon="1.85188">
        <ele>330</ele>
        <time>2021-10-07T17:10:25+02:00</time>
      </trkpt>
      <trkpt lat="44.51739" lon="1.85196">
        <ele>332</ele>
        <time>2021-10-07T17:10:25+02:00</time>
      </trkpt>
      <trkpt lat="44.51758" lon="1.85213">
        <ele>332</ele>
        <time>2021-10-07T17:10:25+02:00</time>
      </trkpt>
      <trkpt lat="44.51776" lon="1.85233">
        <ele>334</ele>
        <time>2021-10-07T17:10:25+02:00</time>
      </trkpt>
      <trkpt lat="44.51795" lon="1.85253">
        <ele>335</ele>
        <time>2021-10-07T17:10:25+02:00</time>
      </trkpt>
      <trkpt lat="44.51814" lon="1.85271">
        <ele>337</ele>
        <time>2021-10-07T17:10:25+02:00</time>
      </trkpt>
      <trkpt lat="44.51837" lon="1.85267">
        <ele>336</ele>
        <time>2021-10-07T17:10:25+02:00</time>
      </trkpt>
      <trkpt lat="44.51854" lon="1.85246">
        <ele>335</ele>
        <time>2021-10-07T17:10:25+02:00</time>
      </trkpt>
      <trkpt lat="44.5187" lon="1.85222">
        <ele>334</ele>
        <time>2021-10-07T17:10:25+02:00</time>
      </trkpt>
      <trkpt lat="44.51888" lon="1.852">
        <ele>331</ele>
        <time>2021-10-07T17:10:25+02:00</time>
      </trkpt>
      <trkpt lat="44.51904" lon="1.85177">
        <ele>330</ele>
        <time>2021-10-07T17:10:25+02:00</time>
      </trkpt>
      <trkpt lat="44.51917" lon="1.85151">
        <ele>329</ele>
        <time>2021-10-07T17:10:25+02:00</time>
      </trkpt>
      <trkpt lat="44.5193" lon="1.85124">
        <ele>328</ele>
        <time>2021-10-07T17:10:25+02:00</time>
      </trkpt>
      <trkpt lat="44.51946" lon="1.85101">
        <ele>328</ele>
        <time>2021-10-07T17:10:25+02:00</time>
      </trkpt>
      <trkpt lat="44.51957" lon="1.85073">
        <ele>330</ele>
        <time>2021-10-07T17:10:25+02:00</time>
      </trkpt>
      <trkpt lat="44.51969" lon="1.85044">
        <ele>331</ele>
        <time>2021-10-07T17:10:25+02:00</time>
      </trkpt>
      <trkpt lat="44.51975" lon="1.85013">
        <ele>333</ele>
        <time>2021-10-07T17:10:25+02:00</time>
      </trkpt>
      <trkpt lat="44.51984" lon="1.84983">
        <ele>336</ele>
        <time>2021-10-07T17:10:25+02:00</time>
      </trkpt>
      <trkpt lat="44.51995" lon="1.84954">
        <ele>339</ele>
        <time>2021-10-07T17:10:25+02:00</time>
      </trkpt>
      <trkpt lat="44.52003" lon="1.84923">
        <ele>341</ele>
        <time>2021-10-07T17:10:25+02:00</time>
      </trkpt>
      <trkpt lat="44.52005" lon="1.8489">
        <ele>343</ele>
        <time>2021-10-07T17:10:25+02:00</time>
      </trkpt>
      <trkpt lat="44.52009" lon="1.84858">
        <ele>344</ele>
        <time>2021-10-07T17:10:25+02:00</time>
      </trkpt>
      <trkpt lat="44.5201" lon="1.84827">
        <ele>347</ele>
        <time>2021-10-07T17:10:25+02:00</time>
      </trkpt>
      <trkpt lat="44.5202" lon="1.84798">
        <ele>348</ele>
        <time>2021-10-07T17:10:25+02:00</time>
      </trkpt>
      <trkpt lat="44.52039" lon="1.84779">
        <ele>349</ele>
        <time>2021-10-07T17:10:25+02:00</time>
      </trkpt>
      <trkpt lat="44.52059" lon="1.8476">
        <ele>352</ele>
        <time>2021-10-07T17:10:25+02:00</time>
      </trkpt>
      <trkpt lat="44.52077" lon="1.8474">
        <ele>353</ele>
        <time>2021-10-07T17:10:25+02:00</time>
      </trkpt>
      <trkpt lat="44.52095" lon="1.84721">
        <ele>356</ele>
        <time>2021-10-07T17:10:25+02:00</time>
      </trkpt>
      <trkpt lat="44.52112" lon="1.847">
        <ele>361</ele>
        <time>2021-10-07T17:10:25+02:00</time>
      </trkpt>
      <trkpt lat="44.5213" lon="1.8468">
        <ele>365</ele>
        <time>2021-10-07T17:10:25+02:00</time>
      </trkpt>
      <trkpt lat="44.52128" lon="1.84648">
        <ele>367</ele>
        <time>2021-10-07T17:10:25+02:00</time>
      </trkpt>
      <trkpt lat="44.52115" lon="1.84621">
        <ele>367</ele>
        <time>2021-10-07T17:10:25+02:00</time>
      </trkpt>
      <trkpt lat="44.52102" lon="1.84595">
        <ele>366</ele>
        <time>2021-10-07T17:10:25+02:00</time>
      </trkpt>
      <trkpt lat="44.52087" lon="1.84569">
        <ele>366</ele>
        <time>2021-10-07T17:10:25+02:00</time>
      </trkpt>
      <trkpt lat="44.52075" lon="1.84541">
        <ele>366</ele>
        <time>2021-10-07T17:10:25+02:00</time>
      </trkpt>
      <trkpt lat="44.52061" lon="1.84515">
        <ele>367</ele>
        <time>2021-10-07T17:10:25+02:00</time>
      </trkpt>
      <trkpt lat="44.52045" lon="1.84492">
        <ele>369</ele>
        <time>2021-10-07T17:10:25+02:00</time>
      </trkpt>
      <trkpt lat="44.52027" lon="1.84473">
        <ele>370</ele>
        <time>2021-10-07T17:10:25+02:00</time>
      </trkpt>
      <trkpt lat="44.52008" lon="1.84455">
        <ele>371</ele>
        <time>2021-10-07T17:10:25+02:00</time>
      </trkpt>
      <trkpt lat="44.51998" lon="1.84426">
        <ele>373</ele>
        <time>2021-10-07T17:10:25+02:00</time>
      </trkpt>
      <trkpt lat="44.5198" lon="1.84406">
        <ele>373</ele>
        <time>2021-10-07T17:10:25+02:00</time>
      </trkpt>
      <trkpt lat="44.51958" lon="1.84394">
        <ele>373</ele>
        <time>2021-10-07T17:10:25+02:00</time>
      </trkpt>
      <trkpt lat="44.51943" lon="1.8437">
        <ele>374</ele>
        <time>2021-10-07T17:10:25+02:00</time>
      </trkpt>
      <trkpt lat="44.51927" lon="1.84347">
        <ele>374</ele>
        <time>2021-10-07T17:10:25+02:00</time>
      </trkpt>
      <trkpt lat="44.51908" lon="1.84327">
        <ele>375</ele>
        <time>2021-10-07T17:10:25+02:00</time>
      </trkpt>
      <trkpt lat="44.51891" lon="1.84306">
        <ele>376</ele>
        <time>2021-10-07T17:10:25+02:00</time>
      </trkpt>
      <trkpt lat="44.51874" lon="1.84282">
        <ele>377</ele>
        <time>2021-10-07T17:10:25+02:00</time>
      </trkpt>
      <trkpt lat="44.51855" lon="1.84264">
        <ele>378</ele>
        <time>2021-10-07T17:10:25+02:00</time>
      </trkpt>
      <trkpt lat="44.51837" lon="1.84244">
        <ele>380</ele>
        <time>2021-10-07T17:10:25+02:00</time>
      </trkpt>
      <trkpt lat="44.51818" lon="1.84227">
        <ele>380</ele>
        <time>2021-10-07T17:10:25+02:00</time>
      </trkpt>
      <trkpt lat="44.51799" lon="1.84208">
        <ele>379</ele>
        <time>2021-10-07T17:10:25+02:00</time>
      </trkpt>
      <trkpt lat="44.51782" lon="1.84185">
        <ele>377</ele>
        <time>2021-10-07T17:10:25+02:00</time>
      </trkpt>
      <trkpt lat="44.51765" lon="1.84161">
        <ele>377</ele>
        <time>2021-10-07T17:10:25+02:00</time>
      </trkpt>
      <trkpt lat="44.51749" lon="1.84139">
        <ele>375</ele>
        <time>2021-10-07T17:10:25+02:00</time>
      </trkpt>
      <trkpt lat="44.5173" lon="1.84121">
        <ele>374</ele>
        <time>2021-10-07T17:10:25+02:00</time>
      </trkpt>
      <trkpt lat="44.51712" lon="1.84099">
        <ele>371</ele>
        <time>2021-10-07T17:10:25+02:00</time>
      </trkpt>
      <trkpt lat="44.51695" lon="1.84076">
        <ele>370</ele>
        <time>2021-10-07T17:10:25+02:00</time>
      </trkpt>
      <trkpt lat="44.51678" lon="1.84054">
        <ele>369</ele>
        <time>2021-10-07T17:10:25+02:00</time>
      </trkpt>
      <trkpt lat="44.51664" lon="1.8403">
        <ele>369</ele>
        <time>2021-10-07T17:10:25+02:00</time>
      </trkpt>
      <trkpt lat="44.51648" lon="1.84007">
        <ele>368</ele>
        <time>2021-10-07T17:10:25+02:00</time>
      </trkpt>
      <trkpt lat="44.51635" lon="1.8398">
        <ele>367</ele>
        <time>2021-10-07T17:10:25+02:00</time>
      </trkpt>
      <trkpt lat="44.51635" lon="1.83948">
        <ele>367</ele>
        <time>2021-10-07T17:10:25+02:00</time>
      </trkpt>
      <trkpt lat="44.51633" lon="1.83914">
        <ele>366</ele>
        <time>2021-10-07T17:10:25+02:00</time>
      </trkpt>
      <trkpt lat="44.51631" lon="1.83882">
        <ele>366</ele>
        <time>2021-10-07T17:10:25+02:00</time>
      </trkpt>
      <trkpt lat="44.51631" lon="1.83848">
        <ele>365</ele>
        <time>2021-10-07T17:10:25+02:00</time>
      </trkpt>
      <trkpt lat="44.51624" lon="1.83817">
        <ele>366</ele>
        <time>2021-10-07T17:10:25+02:00</time>
      </trkpt>
      <trkpt lat="44.51616" lon="1.83787">
        <ele>366</ele>
        <time>2021-10-07T17:10:25+02:00</time>
      </trkpt>
      <trkpt lat="44.51605" lon="1.83758">
        <ele>366</ele>
        <time>2021-10-07T17:10:25+02:00</time>
      </trkpt>
      <trkpt lat="44.51592" lon="1.8373">
        <ele>366</ele>
        <time>2021-10-07T17:10:25+02:00</time>
      </trkpt>
      <trkpt lat="44.5158" lon="1.83704">
        <ele>366</ele>
        <time>2021-10-07T17:10:25+02:00</time>
      </trkpt>
      <trkpt lat="44.51576" lon="1.83673">
        <ele>365</ele>
        <time>2021-10-07T17:10:25+02:00</time>
      </trkpt>
      <trkpt lat="44.51571" lon="1.83641">
        <ele>364</ele>
        <time>2021-10-07T17:10:25+02:00</time>
      </trkpt>
      <trkpt lat="44.51573" lon="1.83608">
        <ele>364</ele>
        <time>2021-10-07T17:10:25+02:00</time>
      </trkpt>
      <trkpt lat="44.51587" lon="1.83582">
        <ele>362</ele>
        <time>2021-10-07T17:10:25+02:00</time>
      </trkpt>
      <trkpt lat="44.5161" lon="1.83577">
        <ele>360</ele>
        <time>2021-10-07T17:10:25+02:00</time>
      </trkpt>
      <trkpt lat="44.51602" lon="1.83547">
        <ele>360</ele>
        <time>2021-10-07T17:10:25+02:00</time>
      </trkpt>
      <trkpt lat="44.51584" lon="1.83528">
        <ele>361</ele>
        <time>2021-10-07T17:10:25+02:00</time>
      </trkpt>
      <trkpt lat="44.51572" lon="1.83501">
        <ele>361</ele>
        <time>2021-10-07T17:10:25+02:00</time>
      </trkpt>
      <trkpt lat="44.5156" lon="1.83472">
        <ele>361</ele>
        <time>2021-10-07T17:10:25+02:00</time>
      </trkpt>
      <trkpt lat="44.51553" lon="1.83442">
        <ele>360</ele>
        <time>2021-10-07T17:10:25+02:00</time>
      </trkpt>
      <trkpt lat="44.51542" lon="1.83413">
        <ele>360</ele>
        <time>2021-10-07T17:10:25+02:00</time>
      </trkpt>
      <trkpt lat="44.51531" lon="1.83384">
        <ele>360</ele>
        <time>2021-10-07T17:10:25+02:00</time>
      </trkpt>
      <trkpt lat="44.51517" lon="1.83359">
        <ele>359</ele>
        <time>2021-10-07T17:10:25+02:00</time>
      </trkpt>
      <trkpt lat="44.51508" lon="1.8333">
        <ele>358</ele>
        <time>2021-10-07T17:10:25+02:00</time>
      </trkpt>
      <trkpt lat="44.51497" lon="1.83299">
        <ele>357</ele>
        <time>2021-10-07T17:10:25+02:00</time>
      </trkpt>
      <trkpt lat="44.51487" lon="1.83271">
        <ele>355</ele>
        <time>2021-10-07T17:10:25+02:00</time>
      </trkpt>
      <trkpt lat="44.51474" lon="1.83244">
        <ele>354</ele>
        <time>2021-10-07T17:10:25+02:00</time>
      </trkpt>
      <trkpt lat="44.5146" lon="1.83218">
        <ele>351</ele>
        <time>2021-10-07T17:10:25+02:00</time>
      </trkpt>
      <trkpt lat="44.51454" lon="1.83187">
        <ele>347</ele>
        <time>2021-10-07T17:10:25+02:00</time>
      </trkpt>
      <trkpt lat="44.51447" lon="1.83156">
        <ele>344</ele>
        <time>2021-10-07T17:10:25+02:00</time>
      </trkpt>
      <trkpt lat="44.51438" lon="1.83126">
        <ele>338</ele>
        <time>2021-10-07T17:10:25+02:00</time>
      </trkpt>
      <trkpt lat="44.51431" lon="1.83096">
        <ele>334</ele>
        <time>2021-10-07T17:10:25+02:00</time>
      </trkpt>
      <trkpt lat="44.51425" lon="1.83064">
        <ele>330</ele>
        <time>2021-10-07T17:10:25+02:00</time>
      </trkpt>
      <trkpt lat="44.51419" lon="1.83032">
        <ele>327</ele>
        <time>2021-10-07T17:10:25+02:00</time>
      </trkpt>
      <trkpt lat="44.51412" lon="1.83">
        <ele>323</ele>
        <time>2021-10-07T17:10:25+02:00</time>
      </trkpt>
      <trkpt lat="44.51402" lon="1.82971">
        <ele>320</ele>
        <time>2021-10-07T17:10:25+02:00</time>
      </trkpt>
      <trkpt lat="44.51392" lon="1.82942">
        <ele>318</ele>
        <time>2021-10-07T17:10:25+02:00</time>
      </trkpt>
      <trkpt lat="44.51382" lon="1.82913">
        <ele>317</ele>
        <time>2021-10-07T17:10:25+02:00</time>
      </trkpt>
      <trkpt lat="44.51371" lon="1.82885">
        <ele>315</ele>
        <time>2021-10-07T17:10:25+02:00</time>
      </trkpt>
      <trkpt lat="44.51356" lon="1.82862">
        <ele>314</ele>
        <time>2021-10-07T17:10:25+02:00</time>
      </trkpt>
      <trkpt lat="44.51337" lon="1.82881">
        <ele>313</ele>
        <time>2021-10-07T17:10:25+02:00</time>
      </trkpt>
      <trkpt lat="44.51314" lon="1.82886">
        <ele>315</ele>
        <time>2021-10-07T17:10:25+02:00</time>
      </trkpt>
      <trkpt lat="44.51291" lon="1.82878">
        <ele>317</ele>
        <time>2021-10-07T17:10:25+02:00</time>
      </trkpt>
      <trkpt lat="44.51269" lon="1.8287">
        <ele>318</ele>
        <time>2021-10-07T17:10:25+02:00</time>
      </trkpt>
      <trkpt lat="44.51246" lon="1.82868">
        <ele>321</ele>
        <time>2021-10-07T17:10:25+02:00</time>
      </trkpt>
      <trkpt lat="44.51223" lon="1.82874">
        <ele>323</ele>
        <time>2021-10-07T17:10:25+02:00</time>
      </trkpt>
      <trkpt lat="44.51201" lon="1.82883">
        <ele>325</ele>
        <time>2021-10-07T17:10:25+02:00</time>
      </trkpt>
      <trkpt lat="44.51181" lon="1.829">
        <ele>327</ele>
        <time>2021-10-07T17:10:25+02:00</time>
      </trkpt>
      <trkpt lat="44.51158" lon="1.82899">
        <ele>328</ele>
        <time>2021-10-07T17:10:25+02:00</time>
      </trkpt>
      <trkpt lat="44.51135" lon="1.82901">
        <ele>330</ele>
        <time>2021-10-07T17:10:25+02:00</time>
      </trkpt>
      <trkpt lat="44.51114" lon="1.82914">
        <ele>332</ele>
        <time>2021-10-07T17:10:25+02:00</time>
      </trkpt>
      <trkpt lat="44.51093" lon="1.82928">
        <ele>334</ele>
        <time>2021-10-07T17:10:25+02:00</time>
      </trkpt>
      <trkpt lat="44.51072" lon="1.8294">
        <ele>336</ele>
        <time>2021-10-07T17:10:25+02:00</time>
      </trkpt>
      <trkpt lat="44.51049" lon="1.82941">
        <ele>337</ele>
        <time>2021-10-07T17:10:25+02:00</time>
      </trkpt>
      <trkpt lat="44.5103" lon="1.82957">
        <ele>339</ele>
        <time>2021-10-07T17:10:25+02:00</time>
      </trkpt>
      <trkpt lat="44.51011" lon="1.82975">
        <ele>340</ele>
        <time>2021-10-07T17:10:25+02:00</time>
      </trkpt>
      <trkpt lat="44.50992" lon="1.82992">
        <ele>342</ele>
        <time>2021-10-07T17:10:25+02:00</time>
      </trkpt>
      <trkpt lat="44.50974" lon="1.83011">
        <ele>344</ele>
        <time>2021-10-07T17:10:25+02:00</time>
      </trkpt>
      <trkpt lat="44.50955" lon="1.83032">
        <ele>343</ele>
        <time>2021-10-07T17:10:25+02:00</time>
      </trkpt>
      <trkpt lat="44.50941" lon="1.83058">
        <ele>345</ele>
        <time>2021-10-07T17:10:25+02:00</time>
      </trkpt>
      <trkpt lat="44.50921" lon="1.83073">
        <ele>347</ele>
        <time>2021-10-07T17:10:25+02:00</time>
      </trkpt>
      <trkpt lat="44.50899" lon="1.83079">
        <ele>349</ele>
        <time>2021-10-07T17:10:25+02:00</time>
      </trkpt>
      <trkpt lat="44.50877" lon="1.83088">
        <ele>352</ele>
        <time>2021-10-07T17:10:25+02:00</time>
      </trkpt>
      <trkpt lat="44.50854" lon="1.83099">
        <ele>356</ele>
        <time>2021-10-07T17:10:25+02:00</time>
      </trkpt>
      <trkpt lat="44.50834" lon="1.83118">
        <ele>359</ele>
        <time>2021-10-07T17:10:25+02:00</time>
      </trkpt>
      <trkpt lat="44.50816" lon="1.83137">
        <ele>358</ele>
        <time>2021-10-07T17:10:25+02:00</time>
      </trkpt>
      <trkpt lat="44.50801" lon="1.83161">
        <ele>356</ele>
        <time>2021-10-07T17:10:25+02:00</time>
      </trkpt>
      <trkpt lat="44.50781" lon="1.83178">
        <ele>352</ele>
        <time>2021-10-07T17:10:25+02:00</time>
      </trkpt>
      <trkpt lat="44.50759" lon="1.83188">
        <ele>349</ele>
        <time>2021-10-07T17:10:25+02:00</time>
      </trkpt>
      <trkpt lat="44.50736" lon="1.83193">
        <ele>346</ele>
        <time>2021-10-07T17:10:25+02:00</time>
      </trkpt>
      <trkpt lat="44.50715" lon="1.83205">
        <ele>343</ele>
        <time>2021-10-07T17:10:25+02:00</time>
      </trkpt>
      <trkpt lat="44.50694" lon="1.8322">
        <ele>338</ele>
        <time>2021-10-07T17:10:25+02:00</time>
      </trkpt>
      <trkpt lat="44.50672" lon="1.83228">
        <ele>336</ele>
        <time>2021-10-07T17:10:25+02:00</time>
      </trkpt>
      <trkpt lat="44.5065" lon="1.83237">
        <ele>333</ele>
        <time>2021-10-07T17:10:25+02:00</time>
      </trkpt>
      <trkpt lat="44.50628" lon="1.83249">
        <ele>331</ele>
        <time>2021-10-07T17:10:25+02:00</time>
      </trkpt>
      <trkpt lat="44.50606" lon="1.83259">
        <ele>330</ele>
        <time>2021-10-07T17:10:25+02:00</time>
      </trkpt>
      <trkpt lat="44.50585" lon="1.83272">
        <ele>328</ele>
        <time>2021-10-07T17:10:25+02:00</time>
      </trkpt>
      <trkpt lat="44.50562" lon="1.83277">
        <ele>326</ele>
        <time>2021-10-07T17:10:25+02:00</time>
      </trkpt>
      <trkpt lat="44.5054" lon="1.83291">
        <ele>324</ele>
        <time>2021-10-07T17:10:25+02:00</time>
      </trkpt>
      <trkpt lat="44.50519" lon="1.83305">
        <ele>322</ele>
        <time>2021-10-07T17:10:25+02:00</time>
      </trkpt>
      <trkpt lat="44.50498" lon="1.83319">
        <ele>320</ele>
        <time>2021-10-07T17:10:25+02:00</time>
      </trkpt>
      <trkpt lat="44.50479" lon="1.83337">
        <ele>318</ele>
        <time>2021-10-07T17:10:25+02:00</time>
      </trkpt>
      <trkpt lat="44.50458" lon="1.83351">
        <ele>316</ele>
        <time>2021-10-07T17:10:25+02:00</time>
      </trkpt>
      <trkpt lat="44.50437" lon="1.83364">
        <ele>315</ele>
        <time>2021-10-07T17:10:25+02:00</time>
      </trkpt>
      <trkpt lat="44.50415" lon="1.83373">
        <ele>314</ele>
        <time>2021-10-07T17:10:25+02:00</time>
      </trkpt>
      <trkpt lat="44.50394" lon="1.83384">
        <ele>313</ele>
        <time>2021-10-07T17:10:25+02:00</time>
      </trkpt>
      <trkpt lat="44.50371" lon="1.83392">
        <ele>312</ele>
        <time>2021-10-07T17:10:25+02:00</time>
      </trkpt>
      <trkpt lat="44.5035" lon="1.83404">
        <ele>311</ele>
        <time>2021-10-07T17:10:25+02:00</time>
      </trkpt>
      <trkpt lat="44.50329" lon="1.83416">
        <ele>309</ele>
        <time>2021-10-07T17:10:25+02:00</time>
      </trkpt>
      <trkpt lat="44.50307" lon="1.83427">
        <ele>308</ele>
        <time>2021-10-07T17:10:25+02:00</time>
      </trkpt>
      <trkpt lat="44.50286" lon="1.83439">
        <ele>306</ele>
        <time>2021-10-07T17:10:25+02:00</time>
      </trkpt>
      <trkpt lat="44.50264" lon="1.83451">
        <ele>304</ele>
        <time>2021-10-07T17:10:25+02:00</time>
      </trkpt>
      <trkpt lat="44.50243" lon="1.83466">
        <ele>303</ele>
        <time>2021-10-07T17:10:25+02:00</time>
      </trkpt>
      <trkpt lat="44.50221" lon="1.83474">
        <ele>303</ele>
        <time>2021-10-07T17:10:25+02:00</time>
      </trkpt>
      <trkpt lat="44.50201" lon="1.83492">
        <ele>302</ele>
        <time>2021-10-07T17:10:25+02:00</time>
      </trkpt>
      <trkpt lat="44.50179" lon="1.835">
        <ele>302</ele>
        <time>2021-10-07T17:10:25+02:00</time>
      </trkpt>
      <trkpt lat="44.50156" lon="1.83496">
        <ele>303</ele>
        <time>2021-10-07T17:10:25+02:00</time>
      </trkpt>
      <trkpt lat="44.50133" lon="1.83502">
        <ele>302</ele>
        <time>2021-10-07T17:10:25+02:00</time>
      </trkpt>
      <trkpt lat="44.5011" lon="1.83503">
        <ele>301</ele>
        <time>2021-10-07T17:10:25+02:00</time>
      </trkpt>
      <trkpt lat="44.50087" lon="1.83503">
        <ele>299</ele>
        <time>2021-10-07T17:10:25+02:00</time>
      </trkpt>
      <trkpt lat="44.50064" lon="1.83507">
        <ele>298</ele>
        <time>2021-10-07T17:10:25+02:00</time>
      </trkpt>
      <trkpt lat="44.50041" lon="1.83513">
        <ele>296</ele>
        <time>2021-10-07T17:10:25+02:00</time>
      </trkpt>
      <trkpt lat="44.50018" lon="1.83514">
        <ele>293</ele>
        <time>2021-10-07T17:10:25+02:00</time>
      </trkpt>
      <trkpt lat="44.49995" lon="1.83517">
        <ele>291</ele>
        <time>2021-10-07T17:10:25+02:00</time>
      </trkpt>
      <trkpt lat="44.49972" lon="1.83519">
        <ele>289</ele>
        <time>2021-10-07T17:10:25+02:00</time>
      </trkpt>
      <trkpt lat="44.49948" lon="1.83518">
        <ele>287</ele>
        <time>2021-10-07T17:10:25+02:00</time>
      </trkpt>
      <trkpt lat="44.49924" lon="1.83521">
        <ele>287</ele>
        <time>2021-10-07T17:10:25+02:00</time>
      </trkpt>
      <trkpt lat="44.49901" lon="1.83516">
        <ele>287</ele>
        <time>2021-10-07T17:10:25+02:00</time>
      </trkpt>
      <trkpt lat="44.49878" lon="1.83518">
        <ele>287</ele>
        <time>2021-10-07T17:10:25+02:00</time>
      </trkpt>
      <trkpt lat="44.49856" lon="1.83516">
        <ele>289</ele>
        <time>2021-10-07T17:10:25+02:00</time>
      </trkpt>
      <trkpt lat="44.49832" lon="1.83519">
        <ele>290</ele>
        <time>2021-10-07T17:10:25+02:00</time>
      </trkpt>
      <trkpt lat="44.49808" lon="1.83521">
        <ele>290</ele>
        <time>2021-10-07T17:10:25+02:00</time>
      </trkpt>
      <trkpt lat="44.49786" lon="1.83527">
        <ele>290</ele>
        <time>2021-10-07T17:10:25+02:00</time>
      </trkpt>
      <trkpt lat="44.49762" lon="1.83528">
        <ele>289</ele>
        <time>2021-10-07T17:10:25+02:00</time>
      </trkpt>
      <trkpt lat="44.49739" lon="1.83524">
        <ele>288</ele>
        <time>2021-10-07T17:10:25+02:00</time>
      </trkpt>
      <trkpt lat="44.49717" lon="1.83521">
        <ele>288</ele>
        <time>2021-10-07T17:10:25+02:00</time>
      </trkpt>
      <trkpt lat="44.49694" lon="1.83527">
        <ele>289</ele>
        <time>2021-10-07T17:10:25+02:00</time>
      </trkpt>
      <trkpt lat="44.49672" lon="1.83541">
        <ele>287</ele>
        <time>2021-10-07T17:10:25+02:00</time>
      </trkpt>
      <trkpt lat="44.49655" lon="1.83564">
        <ele>285</ele>
        <time>2021-10-07T17:10:25+02:00</time>
      </trkpt>
      <trkpt lat="44.4964" lon="1.83587">
        <ele>283</ele>
        <time>2021-10-07T17:10:25+02:00</time>
      </trkpt>
      <trkpt lat="44.4963" lon="1.83616">
        <ele>280</ele>
        <time>2021-10-07T17:10:25+02:00</time>
      </trkpt>
      <trkpt lat="44.4962" lon="1.83645">
        <ele>279</ele>
        <time>2021-10-07T17:10:25+02:00</time>
      </trkpt>
      <trkpt lat="44.49601" lon="1.83662">
        <ele>277</ele>
        <time>2021-10-07T17:10:25+02:00</time>
      </trkpt>
      <trkpt lat="44.49582" lon="1.8368">
        <ele>275</ele>
        <time>2021-10-07T17:10:25+02:00</time>
      </trkpt>
      <trkpt lat="44.49559" lon="1.83682">
        <ele>272</ele>
        <time>2021-10-07T17:10:25+02:00</time>
      </trkpt>
      <trkpt lat="44.49536" lon="1.83679">
        <ele>269</ele>
        <time>2021-10-07T17:10:25+02:00</time>
      </trkpt>
      <trkpt lat="44.49513" lon="1.83684">
        <ele>266</ele>
        <time>2021-10-07T17:10:25+02:00</time>
      </trkpt>
      <trkpt lat="44.49492" lon="1.83695">
        <ele>264</ele>
        <time>2021-10-07T17:10:25+02:00</time>
      </trkpt>
      <trkpt lat="44.49472" lon="1.83712">
        <ele>262</ele>
        <time>2021-10-07T17:10:25+02:00</time>
      </trkpt>
      <trkpt lat="44.49453" lon="1.83729">
        <ele>259</ele>
        <time>2021-10-07T17:10:25+02:00</time>
      </trkpt>
      <trkpt lat="44.49434" lon="1.83745">
        <ele>253</ele>
        <time>2021-10-07T17:10:25+02:00</time>
      </trkpt>
      <trkpt lat="44.49414" lon="1.8373">
        <ele>249</ele>
        <time>2021-10-07T17:10:25+02:00</time>
      </trkpt>
      <trkpt lat="44.49393" lon="1.83716">
        <ele>249</ele>
        <time>2021-10-07T17:10:25+02:00</time>
      </trkpt>
      <trkpt lat="44.4937" lon="1.83705">
        <ele>248</ele>
        <time>2021-10-07T17:10:25+02:00</time>
      </trkpt>
      <trkpt lat="44.49348" lon="1.83698">
        <ele>246</ele>
        <time>2021-10-07T17:10:25+02:00</time>
      </trkpt>
      <trkpt lat="44.49327" lon="1.83688">
        <ele>244</ele>
        <time>2021-10-07T17:10:25+02:00</time>
      </trkpt>
      <trkpt lat="44.49305" lon="1.83679">
        <ele>244</ele>
        <time>2021-10-07T17:10:25+02:00</time>
      </trkpt>
      <trkpt lat="44.49283" lon="1.83673">
        <ele>238</ele>
        <time>2021-10-07T17:10:25+02:00</time>
      </trkpt>
      <trkpt lat="44.4926" lon="1.8367">
        <ele>235</ele>
        <time>2021-10-07T17:10:25+02:00</time>
      </trkpt>
      <trkpt lat="44.49237" lon="1.83663">
        <ele>230</ele>
        <time>2021-10-07T17:10:25+02:00</time>
      </trkpt>
      <trkpt lat="44.49214" lon="1.83657">
        <ele>227</ele>
        <time>2021-10-07T17:10:25+02:00</time>
      </trkpt>
      <trkpt lat="44.49192" lon="1.83646">
        <ele>226</ele>
        <time>2021-10-07T17:10:25+02:00</time>
      </trkpt>
      <trkpt lat="44.49174" lon="1.83627">
        <ele>229</ele>
        <time>2021-10-07T17:10:25+02:00</time>
      </trkpt>
      <trkpt lat="44.49152" lon="1.83636">
        <ele>225</ele>
        <time>2021-10-07T17:10:25+02:00</time>
      </trkpt>
      <trkpt lat="44.4913" lon="1.83644">
        <ele>221</ele>
        <time>2021-10-07T17:10:25+02:00</time>
      </trkpt>
      <trkpt lat="44.49106" lon="1.83644">
        <ele>208</ele>
        <time>2021-10-07T17:10:25+02:00</time>
      </trkpt>
      <trkpt lat="44.49083" lon="1.83647">
        <ele>202</ele>
        <time>2021-10-07T17:10:25+02:00</time>
      </trkpt>
      <trkpt lat="44.49061" lon="1.83652">
        <ele>197</ele>
        <time>2021-10-07T17:10:25+02:00</time>
      </trkpt>
      <trkpt lat="44.49039" lon="1.8366">
        <ele>190</ele>
        <time>2021-10-07T17:10:25+02:00</time>
      </trkpt>
      <trkpt lat="44.49016" lon="1.83663">
        <ele>188</ele>
        <time>2021-10-07T17:10:25+02:00</time>
      </trkpt>
      <trkpt lat="44.48992" lon="1.83665">
        <ele>185</ele>
        <time>2021-10-07T17:10:25+02:00</time>
      </trkpt>
      <trkpt lat="44.4897" lon="1.83677">
        <ele>182</ele>
        <time>2021-10-07T17:10:25+02:00</time>
      </trkpt>
      <trkpt lat="44.4895" lon="1.83692">
        <ele>176</ele>
        <time>2021-10-07T17:10:25+02:00</time>
      </trkpt>
      <trkpt lat="44.48928" lon="1.83703">
        <ele>173</ele>
        <time>2021-10-07T17:10:25+02:00</time>
      </trkpt>
      <trkpt lat="44.48914" lon="1.83728">
        <ele>170</ele>
        <time>2021-10-07T17:10:25+02:00</time>
      </trkpt>
      <trkpt lat="44.489" lon="1.83753">
        <ele>166</ele>
        <time>2021-10-07T17:10:25+02:00</time>
      </trkpt>
      <trkpt lat="44.48892" lon="1.83783">
        <ele>164</ele>
        <time>2021-10-07T17:10:25+02:00</time>
      </trkpt>
      <trkpt lat="44.48885" lon="1.83813">
        <ele>162</ele>
        <time>2021-10-07T17:10:25+02:00</time>
      </trkpt>
      <trkpt lat="44.48881" lon="1.83845">
        <ele>161</ele>
        <time>2021-10-07T17:10:25+02:00</time>
      </trkpt>
      <trkpt lat="44.48877" lon="1.83877">
        <ele>159</ele>
        <time>2021-10-07T17:10:25+02:00</time>
      </trkpt>
      <trkpt lat="44.48865" lon="1.83906">
        <ele>158</ele>
        <time>2021-10-07T17:10:25+02:00</time>
      </trkpt>
      <trkpt lat="44.48855" lon="1.83934">
        <ele>156</ele>
        <time>2021-10-07T17:10:25+02:00</time>
      </trkpt>
      <trkpt lat="44.48845" lon="1.83963">
        <ele>156</ele>
        <time>2021-10-07T17:10:25+02:00</time>
      </trkpt>
      <trkpt lat="44.4884" lon="1.83995">
        <ele>156</ele>
        <time>2021-10-07T17:10:25+02:00</time>
      </trkpt>
      <trkpt lat="44.48831" lon="1.84026">
        <ele>156</ele>
        <time>2021-10-07T17:10:25+02:00</time>
      </trkpt>
      <trkpt lat="44.48818" lon="1.84051">
        <ele>154</ele>
        <time>2021-10-07T17:10:25+02:00</time>
      </trkpt>
      <trkpt lat="44.48808" lon="1.84083">
        <ele>154</ele>
        <time>2021-10-07T17:10:25+02:00</time>
      </trkpt>
      <trkpt lat="44.48793" lon="1.84106">
        <ele>152</ele>
        <time>2021-10-07T17:10:25+02:00</time>
      </trkpt>
      <trkpt lat="44.48772" lon="1.84121">
        <ele>153</ele>
        <time>2021-10-07T17:10:25+02:00</time>
      </trkpt>
      <trkpt lat="44.48753" lon="1.84138">
        <ele>151</ele>
        <time>2021-10-07T17:10:25+02:00</time>
      </trkpt>
      <trkpt lat="44.48733" lon="1.84153">
        <ele>152</ele>
        <time>2021-10-07T17:10:25+02:00</time>
      </trkpt>
      <trkpt lat="44.4871" lon="1.84165">
        <ele>152</ele>
        <time>2021-10-07T17:10:25+02:00</time>
      </trkpt>
      <trkpt lat="44.48691" lon="1.8418">
        <ele>151</ele>
        <time>2021-10-07T17:10:25+02:00</time>
      </trkpt>
      <trkpt lat="44.48675" lon="1.84204">
        <ele>151</ele>
        <time>2021-10-07T17:10:25+02:00</time>
      </trkpt>
      <trkpt lat="44.48684" lon="1.84234">
        <ele>152</ele>
        <time>2021-10-07T17:10:25+02:00</time>
      </trkpt>
      <trkpt lat="44.48697" lon="1.84261">
        <ele>151</ele>
        <time>2021-10-07T17:10:25+02:00</time>
      </trkpt>
      <trkpt lat="44.48715" lon="1.84283">
        <ele>151</ele>
        <time>2021-10-07T17:10:25+02:00</time>
      </trkpt>
      <trkpt lat="44.48727" lon="1.84311">
        <ele>151</ele>
        <time>2021-10-07T17:10:25+02:00</time>
      </trkpt>
      <trkpt lat="44.48741" lon="1.84337">
        <ele>152</ele>
        <time>2021-10-07T17:10:25+02:00</time>
      </trkpt>
      <trkpt lat="44.48754" lon="1.84362">
        <ele>152</ele>
        <time>2021-10-07T17:10:25+02:00</time>
      </trkpt>
      <trkpt lat="44.4877" lon="1.84386">
        <ele>152</ele>
        <time>2021-10-07T17:10:25+02:00</time>
      </trkpt>
      <trkpt lat="44.48783" lon="1.84411">
        <ele>152</ele>
        <time>2021-10-07T17:10:25+02:00</time>
      </trkpt>
      <trkpt lat="44.48798" lon="1.84436">
        <ele>152</ele>
        <time>2021-10-07T17:10:25+02:00</time>
      </trkpt>
      <trkpt lat="44.48813" lon="1.8446">
        <ele>152</ele>
        <time>2021-10-07T17:10:25+02:00</time>
      </trkpt>
      <trkpt lat="44.48826" lon="1.84486">
        <ele>153</ele>
        <time>2021-10-07T17:10:25+02:00</time>
      </trkpt>
      <trkpt lat="44.4884" lon="1.84514">
        <ele>153</ele>
        <time>2021-10-07T17:10:25+02:00</time>
      </trkpt>
      <trkpt lat="44.48852" lon="1.84541">
        <ele>154</ele>
        <time>2021-10-07T17:10:25+02:00</time>
      </trkpt>
      <trkpt lat="44.48866" lon="1.84566">
        <ele>154</ele>
        <time>2021-10-07T17:10:25+02:00</time>
      </trkpt>
      <trkpt lat="44.4888" lon="1.84593">
        <ele>155</ele>
        <time>2021-10-07T17:10:25+02:00</time>
      </trkpt>
      <trkpt lat="44.48891" lon="1.8462">
        <ele>154</ele>
        <time>2021-10-07T17:10:25+02:00</time>
      </trkpt>
      <trkpt lat="44.48902" lon="1.84649">
        <ele>155</ele>
        <time>2021-10-07T17:10:25+02:00</time>
      </trkpt>
      <trkpt lat="44.48915" lon="1.84675">
        <ele>155</ele>
        <time>2021-10-07T17:10:25+02:00</time>
      </trkpt>
      <trkpt lat="44.48927" lon="1.84703">
        <ele>156</ele>
        <time>2021-10-07T17:10:25+02:00</time>
      </trkpt>
      <trkpt lat="44.48945" lon="1.84724">
        <ele>156</ele>
        <time>2021-10-07T17:10:25+02:00</time>
      </trkpt>
      <trkpt lat="44.4896" lon="1.84749">
        <ele>158</ele>
        <time>2021-10-07T17:10:25+02:00</time>
      </trkpt>
      <trkpt lat="44.48977" lon="1.8477">
        <ele>157</ele>
        <time>2021-10-07T17:10:25+02:00</time>
      </trkpt>
      <trkpt lat="44.48992" lon="1.84794">
        <ele>158</ele>
        <time>2021-10-07T17:10:25+02:00</time>
      </trkpt>
      <trkpt lat="44.49007" lon="1.84818">
        <ele>159</ele>
        <time>2021-10-07T17:10:25+02:00</time>
      </trkpt>
      <trkpt lat="44.49022" lon="1.84842">
        <ele>159</ele>
        <time>2021-10-07T17:10:25+02:00</time>
      </trkpt>
      <trkpt lat="44.49024" lon="1.84875">
        <ele>160</ele>
        <time>2021-10-07T17:10:25+02:00</time>
      </trkpt>
      <trkpt lat="44.49014" lon="1.84904">
        <ele>164</ele>
        <time>2021-10-07T17:10:25+02:00</time>
      </trkpt>
      <trkpt lat="44.49001" lon="1.8493">
        <ele>165</ele>
        <time>2021-10-07T17:10:25+02:00</time>
      </trkpt>
      <trkpt lat="44.48981" lon="1.84948">
        <ele>167</ele>
        <time>2021-10-07T17:10:25+02:00</time>
      </trkpt>
      <trkpt lat="44.48969" lon="1.84975">
        <ele>168</ele>
        <time>2021-10-07T17:10:25+02:00</time>
      </trkpt>
      <trkpt lat="44.48981" lon="1.85003">
        <ele>171</ele>
        <time>2021-10-07T17:10:25+02:00</time>
      </trkpt>
      <trkpt lat="44.48995" lon="1.85028">
        <ele>174</ele>
        <time>2021-10-07T17:10:25+02:00</time>
      </trkpt>
      <trkpt lat="44.49007" lon="1.85055">
        <ele>178</ele>
        <time>2021-10-07T17:10:25+02:00</time>
      </trkpt>
      <trkpt lat="44.49021" lon="1.8508">
        <ele>182</ele>
        <time>2021-10-07T17:10:25+02:00</time>
      </trkpt>
      <trkpt lat="44.49033" lon="1.85108">
        <ele>186</ele>
        <time>2021-10-07T17:10:25+02:00</time>
      </trkpt>
      <trkpt lat="44.49025" lon="1.85138">
        <ele>187</ele>
        <time>2021-10-07T17:10:25+02:00</time>
      </trkpt>
    </trkseg>
  </trk>
</gpx>